Wind_Speed
48 49 49 48 48 48 48 48 48 48 49 49 48 47 46 46 47 47 47 46 46 46 46 48 49 49 48 48 50 51 51 50 48 46 45 46 48 49 49 50 50 51 52 52 52 52 53 53 54 54 55 55 55 55 55 55 56 56 57 58 59 60 60 61 61 62 62 63 64 64 65 66 67 68 69 68 68 68 67 66 66 68 69 66 65 65 64 63
45 47 48 48 48 48 48 48 48 48 49 50 50 49 48 48 48 48 48 47 47 46 45 46 48 50 50 48 48 49 51 53 54 52 50 49 48 49 50 51 51 51 52 53 53 53 54 54 54 54 54 55 55 55 56 56 57 58 58 58 60 60 60 61 61 62 62 62 64 64 65 66 66 67 68 67 66 66 65 66 67 66 66 64 64 64 64 63
43 45 46 48 49 49 49 49 49 49 49 50 50 51 50 50 50 50 49 49 48 48 46 45 45 47 49 50 49 47 47 49 51 52 52 51 50 50 50 50 50 50 50 51 51 52 52 53 54 54 54 54 55 56 56 57 58 58 58 58 59 60 59 60 60 61 62 62 63 64 65 65 65 66 66 66 65 64 63 65 65 64 63 64 63 63 64 63
41 43 45 46 48 49 50 51 51 50 50 51 51 52 52 52 52 51 51 51 50 50 49 48 47 46 47 48 48 47 46 46 47 48 48 49 49 49 50 50 50 50 50 50 51 51 52 53 54 54 55 55 56 57 57 58 58 58 58 58 59 59 59 60 60 61 62 63 63 64 64 64 65 65 65 64 64 63 62 63 63 62 62 63 62 62 64 64
40 41 43 45 46 48 50 51 52 52 52 52 53 53 54 54 54 53 53 52 52 52 51 51 50 48 48 47 48 48 47 46 46 46 47 47 47 48 48 49 50 51 51 52 52 53 53 54 54 55 56 56 57 57 58 58 58 58 58 58 58 59 59 60 61 62 62 63 62 63 63 64 64 64 64 63 62 62 61 60 61 61 62 63 62 61 63 66
37 39 40 42 44 46 48 50 52 53 54 54 55 56 56 56 56 56 55 54 53 53 53 53 52 51 50 49 48 48 48 48 48 48 48 48 48 48 49 50 51 52 52 53 53 54 54 55 55 56 57 57 57 58 58 58 59 58 58 58 58 59 59 60 61 61 62 61 61 61 62 63 64 64 62 62 60 60 60 60 61 62 62 62 63 62 62 65
34 35 37 39 41 43 46 48 50 52 54 56 57 58 58 58 58 58 57 57 56 55 54 54 53 53 52 51 50 50 50 50 50 50 50 50 50 51 51 52 52 53 53 54 54 55 55 55 56 56 57 57 57 58 58 58 58 58 58 58 58 58 59 59 59 59 60 60 60 61 62 62 63 62 60 59 58 59 60 60 62 62 62 62 63 64 63 64
30 32 33 35 37 40 42 45 48 51 53 55 58 59 60 60 60 60 60 59 58 57 56 55 55 54 53 53 52 52 52 52 52 52 52 52 53 53 53 54 54 54 54 54 55 55 55 55 55 56 56 56 57 57 57 57 57 57 57 57 57 57 57 57 57 58 59 59 60 61 62 61 61 60 58 57 57 58 60 61 62 62 63 63 63 64 64 65
27 28 29 31 32 35 37 40 43 47 50 53 56 58 60 61 62 62 62 61 61 59 58 57 56 55 55 54 54 54 54 53 53 53 54 54 54 54 54 54 54 54 55 55 55 55 55 55 55 55 55 56 56 56 56 56 57 57 57 56 55 55 55 55 56 57 59 59 59 60 59 58 58 58 57 57 57 58 61 62 63 63 63 64 64 65 65 66
24 25 25 26 28 30 33 35 38 41 44 47 51 54 57 60 62 63 63 63 63 62 60 59 58 57 56 56 55 55 55 55 54 54 54 54 54 54 54 54 54 54 55 54 54 54 54 54 54 55 55 55 56 56 56 56 56 55 54 54 53 53 54 55 56 57 58 57 56 57 58 57 57 58 58 58 57 59 62 63 63 63 64 65 65 66 67 68
22 22 23 24 26 28 30 32 34 36 39 41 44 47 50 53 56 59 61 62 63 63 62 60 59 58 57 57 56 55 55 55 55 55 55 55 54 54 54 54 54 54 54 54 54 54 54 54 54 54 54 55 55 55 55 54 53 52 52 52 51 52 53 54 54 55 56 55 54 55 58 58 57 58 60 60 59 60 62 63 63 64 65 66 66 67 68 69
20 21 22 23 24 26 27 30 32 35 37 39 40 42 44 46 48 51 54 57 60 61 62 61 60 59 58 57 56 55 55 55 55 55 55 54 54 54 54 54 54 53 53 53 53 53 53 53 54 54 54 54 53 53 52 51 51 50 50 50 51 51 53 53 53 53 54 53 54 55 58 60 59 58 61 62 62 63 63 63 64 65 66 67 67 68 69 70
19 20 20 21 22 23 24 26 28 31 33 35 36 38 40 41 42 44 46 49 52 56 58 59 59 58 58 58 57 56 55 54 54 54 54 54 53 53 53 53 53 53 53 53 53 53 53 53 53 52 53 52 51 51 50 49 49 49 49 49 50 50 51 52 51 52 53 53 55 55 58 61 60 59 60 62 64 64 64 64 65 65 66 67 69 69 70 71
18 18 19 20 21 20 20 21 23 25 26 28 30 33 35 36 38 39 41 43 45 47 49 52 54 55 57 57 57 55 54 54 54 53 53 53 53 53 53 53 53 52 52 53 53 53 52 52 51 51 51 50 49 48 48 47 47 48 48 49 51 50 49 50 51 52 53 54 56 56 58 62 63 61 60 62 64 65 65 65 65 65 66 67 69 71 71 72
17 17 18 19 19 19 18 18 19 19 20 22 24 27 29 31 33 35 37 39 40 40 41 44 46 49 52 54 54 54 54 53 52 52 51 52 52 52 52 52 53 53 53 53 53 52 51 50 50 49 49 48 47 46 46 46 46 48 49 50 51 51 50 50 52 54 54 55 58 58 60 63 65 63 62 63 65 65 65 66 66 66 66 67 68 70 72 72
15 16 17 18 18 17 16 15 15 15 15 17 17 19 21 23 25 28 31 33 35 35 36 37 40 42 45 48 50 51 51 51 50 50 50 50 50 50 51 52 53 53 52 52 51 50 49 49 48 47 47 46 45 45 45 46 46 48 51 52 52 52 52 51 53 56 56 57 59 61 62 65 67 66 64 65 66 67 67 67 66 66 67 68 69 71 71 72
14 15 16 16 16 16 14 13 13 13 13 13 13 13 15 16 18 22 24 27 29 31 32 33 35 36 38 41 43 45 46 47 47 47 47 48 48 49 50 50 51 50 50 49 49 48 47 47 46 46 45 44 44 45 46 47 48 49 51 53 53 53 54 53 54 58 59 60 61 62 64 67 69 68 67 68 67 68 67 67 67 67 67 69 70 71 71 72
13 14 15 16 16 16 15 13 12 12 11 12 12 11 12 13 15 17 20 23 25 27 29 30 30 31 32 34 37 39 40 41 41 42 42 44 45 46 47 48 48 47 47 48 48 47 46 45 45 45 44 44 45 46 47 49 50 51 52 53 54 55 56 56 56 59 60 61 63 64 65 68 70 70 69 70 70 70 69 67 67 67 68 69 71 71 72 72
13 14 15 16 17 17 17 15 14 14 13 12 13 13 12 12 13 15 18 21 22 25 26 26 27 26 26 28 31 33 34 34 35 37 39 41 43 44 45 46 46 47 48 48 47 45 44 44 44 44 44 44 46 48 49 50 52 53 54 54 55 56 57 58 59 62 63 63 64 66 67 69 71 71 71 72 72 72 70 68 68 68 69 70 71 71 71 71
13 14 15 16 17 18 19 18 17 16 15 14 14 14 14 13 14 15 17 19 21 23 24 25 26 24 23 25 26 28 29 31 34 37 40 42 43 44 45 46 48 48 47 45 44 44 43 43 44 44 44 45 47 50 51 53 54 55 56 56 57 57 57 59 61 64 66 66 66 68 69 71 72 72 73 74 74 73 72 70 70 70 70 71 71 71 71 72
13 14 14 15 17 18 20 21 21 20 19 17 16 16 16 16 16 16 17 19 21 23 24 26 26 23 23 26 27 28 30 35 39 41 43 44 44 46 47 48 48 46 44 43 43 42 41 43 46 46 46 48 50 52 53 54 56 57 58 59 59 59 59 60 62 65 68 69 69 70 70 72 74 74 74 75 75 74 72 71 71 71 72 71 71 71 72 74
14 14 15 16 17 19 20 22 24 24 23 21 19 18 18 18 18 18 19 19 20 22 25 26 26 25 25 27 29 32 36 40 43 44 45 45 45 46 46 46 44 43 43 43 42 42 44 47 49 49 49 51 54 55 56 56 58 59 60 61 62 61 61 62 64 66 69 71 71 71 72 73 75 75 75 75 76 75 73 72 73 73 73 72 71 72 73 74
15 16 17 17 18 19 20 22 24 26 27 25 23 22 21 21 20 20 21 21 22 23 25 27 27 29 30 32 34 37 40 43 44 45 45 44 43 43 43 44 42 42 44 44 43 44 48 50 50 51 53 54 57 58 57 58 59 60 61 63 64 63 63 64 66 68 70 72 72 72 73 75 76 76 76 76 75 75 73 72 73 73 73 72 71 72 72 72
18 18 19 20 21 21 22 23 24 27 29 29 27 25 25 24 23 22 23 23 24 25 26 28 30 32 34 36 38 40 43 44 45 47 46 42 39 39 41 42 42 43 44 44 45 48 51 52 52 53 55 56 58 59 59 60 60 61 62 64 64 65 67 68 69 71 72 73 72 73 74 76 78 77 76 76 74 73 72 72 73 74 73 72 71 71 70 71
21 21 22 23 23 24 25 25 26 27 30 30 29 29 28 27 25 25 25 25 26 26 27 28 30 32 34 35 37 40 42 44 46 47 47 44 40 40 42 43 43 44 45 45 47 50 51 52 53 54 56 58 59 59 61 62 61 62 64 65 65 67 69 71 73 74 73 72 72 75 76 77 80 79 76 75 73 71 71 72 74 74 72 71 70 70 70 71
23 24 25 25 26 27 27 28 28 29 31 31 31 31 30 31 29 27 26 27 27 28 28 29 30 31 32 33 34 35 38 41 43 44 44 43 42 42 43 44 44 45 47 48 49 50 51 52 54 56 58 58 59 60 62 63 62 63 65 67 68 69 71 73 75 74 73 72 73 77 79 78 80 81 78 75 72 71 72 73 74 73 71 70 70 70 70 68
26 27 27 28 28 29 30 31 31 31 32 32 32 32 32 33 33 30 29 29 29 29 30 30 31 31 32 32 32 33 37 41 43 44 44 43 43 43 43 44 45 47 51 52 52 53 54 55 56 57 58 58 60 62 63 63 64 65 67 68 70 71 74 75 75 73 73 73 74 78 80 78 78 80 79 76 73 72 73 74 72 70 70 69 70 70 67 63
29 29 30 30 31 32 33 33 33 32 32 32 33 32 32 34 34 32 31 31 30 31 32 32 33 34 34 35 34 35 39 43 45 46 45 44 44 45 46 46 46 49 52 52 52 53 54 55 57 58 59 61 62 63 63 64 66 67 69 71 72 74 75 75 74 73 74 75 76 78 79 77 77 78 79 76 74 74 74 72 70 69 69 69 68 66 62 58
32 32 32 32 33 34 35 35 34 33 33 32 32 32 32 34 36 35 33 32 32 32 33 34 35 36 38 39 38 40 43 44 46 46 45 45 46 47 48 49 50 53 55 53 51 51 54 58 60 61 61 62 64 64 65 67 68 70 71 73 74 75 75 74 74 74 76 77 77 77 77 75 75 77 78 76 73 73 72 71 70 69 67 66 64 61 58 56
35 34 34 34 35 36 36 36 35 34 33 32 32 32 32 33 36 37 35 35 34 34 35 36 37 38 39 41 41 42 44 44 45 45 45 47 48 49 49 49 51 54 55 52 51 53 56 59 59 61 62 63 65 66 68 69 71 72 73 74 75 76 75 74 75 77 78 79 77 76 75 73 73 75 76 75 73 71 70 70 68 65 64 63 61 59 58 59
36 36 35 35 36 36 37 35 34 33 32 31 31 32 33 33 35 37 37 36 36 35 36 37 38 39 39 41 42 43 44 46 46 47 47 48 49 48 47 47 49 51 51 51 51 54 56 58 60 61 63 65 66 68 71 72 73 74 75 77 77 76 75 74 76 78 79 79 76 74 73 71 72 72 71 72 73 71 70 68 64 61 61 62 61 61 62 64
37 37 36 36 36 36 35 32 31 29 29 28 30 33 34 35 36 37 38 37 36 37 37 37 38 39 41 42 43 44 45 47 48 48 49 49 48 47 48 48 48 48 48 49 51 54 56 59 61 62 64 67 69 71 73 73 74 76 77 79 78 77 76 75 77 78 78 76 74 72 72 71 71 70 69 69 70 69 67 63 61 62 64 64 64 65 67 69
38 38 37 35 35 34 30 27 26 25 24 24 26 30 32 35 37 38 38 38 38 38 39 39 40 42 43 44 45 45 46 46 47 48 47 47 47 48 48 47 46 46 48 51 53 55 57 58 61 63 66 69 71 72 74 74 76 77 78 78 77 78 78 76 76 76 75 74 72 71 71 69 69 69 68 67 66 63 62 61 62 65 67 68 68 70 71 73
38 39 37 35 34 31 27 23 22 21 21 21 22 25 28 31 34 36 37 38 39 39 40 41 42 43 44 44 44 45 44 45 45 45 45 44 45 46 46 46 47 49 52 54 55 56 58 59 62 65 68 71 73 74 75 77 77 77 77 77 77 78 79 77 75 73 72 71 70 69 70 69 68 66 63 62 61 60 61 63 66 69 70 72 72 74 75 77
39 39 38 36 33 28 24 22 20 19 18 18 19 22 24 26 29 31 33 35 36 38 39 40 41 41 41 41 41 41 40 40 40 41 41 42 42 43 44 47 50 52 54 56 57 58 60 61 64 67 70 73 74 75 77 78 77 76 75 76 77 78 78 76 74 73 72 69 67 67 68 67 64 60 58 58 60 61 63 67 70 72 73 75 76 77 79 81
39 38 38 37 32 27 22 20 19 18 17 17 18 19 20 22 24 26 29 30 32 33 35 36 37 37 37 36 36 35 34 35 37 38 40 41 42 44 46 49 52 54 56 58 60 62 63 64 67 70 72 74 75 76 77 76 75 75 75 76 76 75 75 74 72 71 71 68 65 65 64 61 57 54 55 59 60 63 66 70 73 75 77 78 79 81 82 84
39 38 38 36 31 26 22 19 18 17 16 16 17 17 18 20 22 23 25 27 28 29 30 32 32 32 32 32 31 31 31 34 36 37 40 42 44 47 50 52 54 57 59 61 62 65 66 66 69 72 74 75 76 76 75 74 75 75 75 75 75 73 73 72 70 69 69 66 61 59 58 58 57 56 57 61 62 65 69 73 75 77 79 81 82 84 87 88
38 38 38 35 30 25 22 19 18 17 16 16 16 17 18 19 20 22 23 25 26 26 27 28 28 28 28 28 29 31 32 34 37 39 42 45 48 50 52 54 57 59 61 63 65 67 68 66 68 72 74 75 75 74 73 74 75 75 74 74 73 72 71 71 70 67 64 59 54 53 55 58 61 63 63 63 65 68 71 74 77 79 81 83 86 88 90 92
38 38 37 35 30 25 22 19 18 18 17 16 16 17 18 19 20 21 22 22 23 24 24 25 25 25 26 27 30 33 35 37 40 43 46 48 50 53 55 57 59 61 63 65 66 68 69 68 69 72 74 73 73 73 73 72 72 72 72 71 71 71 70 69 67 63 58 54 52 52 56 60 64 67 68 67 68 70 74 77 80 83 85 88 90 92 94 96
38 39 37 34 30 26 22 20 19 18 18 17 17 18 18 19 19 20 20 21 21 22 22 23 24 25 27 30 33 36 39 41 43 46 48 51 52 55 57 59 61 63 65 67 68 69 71 71 70 71 71 71 71 71 71 70 69 69 68 68 68 68 66 63 59 58 57 57 58 59 60 65 70 71 71 72 72 74 77 81 84 87 89 92 95 96 97 98
38 39 37 33 29 26 23 20 19 19 19 19 18 18 18 19 19 20 20 20 21 21 22 24 26 29 32 35 37 40 43 45 47 48 51 53 55 56 59 61 63 65 66 68 70 71 71 70 69 68 68 69 69 68 67 66 67 67 66 65 64 61 58 56 55 56 59 61 64 66 65 68 73 74 73 75 77 79 82 85 88 90 93 95 97 97 98 99
38 38 36 32 28 26 24 21 20 20 19 19 18 18 18 19 20 21 21 22 23 24 26 28 30 33 35 38 40 42 45 47 49 51 53 56 58 59 61 63 65 67 69 70 70 70 69 67 67 67 67 67 67 66 64 64 65 65 63 61 59 57 56 57 57 59 62 65 68 70 69 70 75 77 77 78 80 83 87 89 91 93 95 96 97 98 100 102
38 37 34 30 27 24 23 22 21 20 20 19 18 18 19 20 22 23 24 25 27 28 30 31 32 35 37 39 42 44 47 49 52 54 56 58 60 62 64 65 67 68 68 67 67 67 66 66 64 64 64 64 65 64 62 62 61 59 55 55 56 58 60 61 63 64 65 67 71 72 73 76 80 81 82 83 84 87 90 91 92 94 96 98 100 102 104 107
38 36 32 29 26 23 22 22 21 21 20 20 20 21 22 23 24 26 28 29 30 31 32 34 35 38 40 43 45 47 50 52 55 57 59 61 63 64 65 66 66 65 64 64 64 65 65 65 63 61 60 61 62 60 57 54 53 52 51 53 57 61 64 65 67 68 67 69 73 75 77 81 85 87 88 88 89 91 92 92 95 97 100 103 105 107 110 113
37 34 30 27 25 24 22 21 21 21 21 22 23 24 25 26 27 29 30 31 33 34 36 38 40 42 44 46 48 50 52 55 57 59 61 62 62 62 62 62 61 62 62 62 62 62 62 63 62 60 59 57 55 53 49 47 49 52 54 56 59 63 65 67 69 71 71 73 76 80 81 83 87 90 90 89 91 92 94 96 99 102 105 107 109 111 114 117
36 32 28 26 25 24 22 21 21 21 22 23 24 25 26 27 29 30 32 34 35 37 38 40 42 44 46 48 50 52 54 56 57 57 57 57 57 58 58 59 59 60 60 60 60 59 60 61 61 58 55 52 49 48 48 48 52 56 59 61 62 65 67 70 72 74 76 77 80 84 85 85 87 89 89 90 93 95 97 100 102 105 108 110 112 115 118 120
33 30 27 26 25 24 23 22 22 22 23 24 25 27 28 29 30 32 33 35 36 38 39 41 43 45 47 49 51 53 54 54 54 53 53 53 54 55 56 57 58 58 58 58 58 57 57 57 55 52 50 49 49 50 52 54 56 59 61 63 65 67 70 73 76 79 80 81 82 85 87 87 87 89 91 94 96 98 101 103 106 109 111 113 116 119 122 124
30 28 26 25 24 24 23 23 23 23 24 25 27 28 29 30 32 33 35 36 38 40 42 43 45 47 49 50 51 51 51 51 52 52 52 53 54 54 55 55 56 56 56 56 55 53 50 49 47 47 50 52 53 55 56 57 60 62 64 67 68 71 74 77 80 82 82 82 83 84 87 90 91 93 94 97 100 102 105 107 110 113 116 118 121 124 126 128
29 27 26 25 24 23 23 23 23 24 25 26 27 29 31 32 33 35 36 38 40 42 43 44 46 46 47 47 48 48 49 50 51 52 52 53 53 53 53 54 54 54 53 51 48 45 44 44 46 48 52 56 57 58 59 61 64 67 69 71 74 75 77 79 80 81 81 82 84 87 89 92 95 97 99 102 104 107 110 113 116 118 121 123 125 128 130 131
27 26 26 25 24 24 23 23 23 24 24 25 27 28 30 32 33 35 36 37 39 40 41 42 43 44 45 46 47 48 49 49 50 51 51 51 51 51 52 52 50 49 46 44 43 43 44 47 49 50 53 57 59 61 63 64 67 72 74 75 76 76 76 77 79 81 82 84 87 90 93 95 97 100 103 106 109 112 115 118 121 123 125 127 129 130 132 132
25 25 24 24 24 24 24 24 24 24 24 25 26 27 29 31 32 33 35 36 38 39 40 41 42 44 45 46 47 48 48 49 49 49 49 49 49 49 47 45 43 41 41 42 43 45 47 49 51 52 54 58 61 63 66 68 69 73 75 74 74 74 75 77 80 82 85 86 89 92 96 98 100 103 106 110 113 117 120 122 125 126 128 129 130 131 131 130
23 22 22 22 22 22 23 23 24 24 25 26 27 28 29 31 32 33 35 36 38 39 41 42 43 44 45 46 47 47 47 47 47 47 47 46 44 42 39 38 38 40 42 44 46 48 50 51 54 55 57 61 64 66 68 69 68 70 72 73 74 75 77 80 82 85 88 90 92 96 99 102 105 108 111 113 117 120 124 126 128 128 128 129 129 129 129 127
Wind_Direction
210 211 212 214 215 216 217 218 219 220 220 221 222 222 222 223 222 223 224 225 225 225 225 227 228 229 231 233 235 236 238 240 243 245 245 245 246 249 252 254 256 258 260 262 264 266 268 269 271 273 274 275 276 277 278 279 280 281 282 283 283 284 284 285 285 286 286 286 287 288 288 289 289 289 290 290 291 291 291 291 290 290 291 292 291 290 290 289
212 212 214 215 217 218 219 220 222 222 223 223 224 225 226 226 226 226 227 228 228 229 228 228 229 229 231 233 236 237 239 241 244 246 249 250 250 250 253 255 257 259 261 263 265 267 269 270 272 274 275 276 277 278 279 280 281 282 283 284 284 285 286 286 286 287 287 288 288 289 289 289 290 290 291 291 292 292 293 291 291 292 292 292 291 291 290 290
214 214 215 217 218 220 221 222 223 224 225 225 226 227 228 229 229 229 230 230 231 231 232 232 231 231 233 234 237 240 241 242 243 246 248 251 253 254 255 257 260 262 264 265 267 268 270 272 273 275 276 277 278 280 281 282 282 283 284 285 286 286 287 287 287 288 288 289 289 289 290 290 290 290 291 293 293 293 293 292 292 293 292 292 292 291 291 290
216 217 218 219 220 222 223 224 225 226 226 227 228 228 230 230 231 232 232 233 234 234 234 235 235 236 236 237 240 242 244 245 246 248 250 253 255 257 259 261 263 265 267 268 270 271 272 273 274 276 277 278 279 280 281 282 283 284 285 285 286 287 288 288 288 289 289 289 290 290 290 291 291 291 292 293 293 293 292 292 292 292 292 291 292 292 292 291
219 220 221 222 223 224 225 226 227 228 228 229 229 230 231 231 232 233 234 235 236 237 237 238 238 239 240 241 243 244 247 249 250 251 253 255 257 259 261 263 265 267 268 270 271 272 274 275 276 277 278 279 280 281 282 283 284 285 286 286 287 288 288 289 289 289 290 290 290 290 291 291 291 292 293 293 293 293 293 292 292 292 292 292 292 292 292 292
222 223 225 226 227 228 229 230 230 231 231 232 232 232 232 232 233 234 234 235 237 238 239 240 241 242 243 245 246 247 249 251 253 254 256 258 259 261 263 265 266 268 269 271 272 273 275 276 277 278 279 280 281 282 284 284 285 286 287 288 288 289 289 289 289 290 290 290 290 290 291 291 292 293 293 294 294 293 293 292 292 292 292 292 293 292 292 292
225 227 229 230 232 233 234 234 234 235 235 235 235 235 235 235 235 235 235 236 237 238 240 242 243 244 245 247 248 250 252 253 255 256 258 260 261 263 264 266 267 269 270 271 273 274 276 277 278 280 281 282 283 284 285 286 287 288 288 289 289 289 289 289 289 290 290 290 290 291 291 292 292 293 294 294 294 294 294 293 293 293 293 293 293 293 293 293
228 230 232 234 235 237 238 238 239 239 239 238 238 238 238 238 238 237 238 238 238 239 240 242 243 244 246 248 249 251 252 254 255 257 259 261 262 264 265 266 268 269 271 272 274 275 277 279 280 282 283 284 285 286 287 287 288 289 289 290 290 290 289 289 289 289 290 291 292 292 293 293 293 294 294 294 295 295 294 294 294 294 294 294 294 294 294 294
231 233 235 238 240 241 242 243 243 243 243 242 242 242 241 240 240 240 240 240 240 240 241 243 244 245 246 248 249 251 252 254 255 257 259 261 262 264 265 267 269 270 272 274 275 277 278 280 281 283 284 285 286 287 288 289 289 290 290 290 290 289 288 289 290 291 292 293 294 294 294 294 294 295 294 294 295 295 294 294 295 295 295 295 294 294 294 293
234 237 240 242 244 246 247 247 248 248 247 246 246 245 244 243 242 242 242 242 242 242 242 243 245 246 247 248 250 251 253 254 256 258 259 261 263 265 266 268 269 271 273 275 276 278 279 281 282 283 284 285 287 288 289 290 290 291 290 290 289 289 289 291 292 293 294 294 295 295 295 294 295 295 295 295 296 296 295 295 296 296 295 294 294 293 293 292
237 240 243 246 248 250 252 254 254 254 253 252 250 248 247 246 245 244 244 243 243 243 243 244 245 246 247 248 250 251 253 255 257 258 260 262 264 265 267 269 271 272 274 275 277 278 280 281 283 284 285 287 288 289 290 290 290 290 290 289 289 291 292 293 295 295 296 296 297 297 296 295 296 297 297 297 297 296 295 296 297 295 294 294 294 293 293 293
237 240 243 247 250 253 256 258 258 257 256 256 255 254 252 250 248 246 245 244 243 244 243 244 244 246 247 249 250 251 253 255 257 258 260 262 264 265 267 269 271 272 274 275 277 279 281 282 283 285 287 288 289 290 290 289 289 289 289 290 291 293 294 295 297 297 297 298 298 298 297 297 298 299 299 300 299 297 297 297 296 295 295 295 294 294 294 294
238 241 245 248 251 255 260 261 260 259 259 258 258 257 256 253 251 248 245 243 243 243 243 243 244 245 246 248 249 251 253 255 257 258 260 262 264 265 267 269 271 272 274 276 278 279 281 283 285 286 287 288 289 289 289 289 289 289 290 292 293 295 297 299 299 299 299 299 298 298 298 298 299 300 301 301 300 299 299 297 296 296 296 296 296 295 295 295
240 244 248 251 254 258 264 267 265 263 262 260 259 258 257 255 252 248 245 243 242 242 241 242 243 243 244 246 248 250 251 254 256 259 261 262 264 266 267 269 271 272 275 276 278 280 282 283 285 286 287 288 288 288 288 288 290 291 292 294 295 297 298 300 301 300 300 300 299 300 300 299 300 301 302 301 300 300 299 298 297 297 296 296 296 296 295 295
243 248 252 255 257 260 265 271 270 267 265 263 261 260 257 254 250 246 243 241 239 239 239 240 241 241 242 244 246 248 250 252 255 258 260 262 264 266 268 269 271 274 276 278 279 280 282 284 285 286 287 287 287 287 288 289 291 293 294 296 297 298 299 301 302 302 302 302 301 301 301 301 301 303 304 303 302 302 300 298 297 297 296 296 295 295 295 296
247 252 255 258 261 262 266 274 277 275 273 270 266 263 258 253 246 240 238 237 236 235 236 238 239 241 242 244 245 247 249 251 253 256 259 262 264 267 269 271 274 276 277 279 280 282 283 284 285 286 287 287 287 287 288 290 292 295 297 298 298 298 299 301 303 303 304 304 303 303 302 302 301 303 304 304 304 303 301 299 298 298 297 297 296 295 296 297
251 256 260 262 265 267 267 273 278 281 283 280 275 271 265 256 244 234 230 229 230 231 233 236 238 241 243 244 245 247 248 251 253 257 260 263 266 268 271 273 275 277 278 280 282 284 285 285 286 287 287 287 286 287 289 291 293 295 297 298 299 299 299 301 303 304 305 305 304 304 303 302 302 303 304 304 304 302 301 299 298 298 297 297 296 296 297 298
261 263 266 268 269 269 269 269 273 276 279 280 278 277 271 262 249 237 230 226 225 227 230 234 238 241 243 245 247 248 250 252 255 258 262 265 267 268 270 273 275 277 279 282 284 285 285 285 287 288 287 286 286 287 289 291 294 295 296 298 299 300 300 301 303 303 304 304 304 304 303 302 302 303 304 304 303 302 301 300 298 298 297 297 297 297 298 299
269 270 272 274 276 276 273 270 270 272 271 272 272 272 269 263 254 245 238 232 229 229 230 232 235 237 242 245 248 249 250 253 256 259 261 262 264 266 270 273 276 279 281 283 284 283 284 286 288 288 286 285 286 288 289 292 294 296 297 298 299 300 300 301 302 303 304 304 304 304 303 302 302 303 304 304 303 303 302 300 299 299 297 297 297 298 299 300
276 277 277 279 282 283 283 279 276 273 270 267 266 266 265 262 255 247 242 237 235 233 231 231 231 234 241 247 250 251 251 253 255 256 257 259 262 267 271 275 278 281 282 283 283 283 285 288 290 287 284 284 286 288 291 293 296 297 297 299 300 300 300 301 302 302 303 304 304 304 304 302 302 304 304 304 304 303 302 301 300 298 297 297 298 299 301 300
285 282 279 279 280 281 282 283 282 279 274 267 261 259 260 260 257 250 243 238 235 234 232 231 232 233 242 251 253 252 251 252 253 254 256 260 264 269 274 278 280 281 281 281 283 285 288 291 290 286 283 285 287 289 291 293 296 297 298 299 300 300 300 300 301 302 303 304 304 304 303 302 303 304 304 304 303 303 302 301 299 298 298 299 300 301 300 299
288 283 280 277 276 277 278 280 282 281 278 271 263 257 255 256 256 253 248 241 236 234 232 230 230 229 234 242 245 244 245 247 249 253 257 262 267 273 278 281 281 282 282 282 285 289 291 291 289 286 284 286 288 289 291 293 296 297 298 300 300 300 300 299 301 302 303 304 304 304 303 303 303 303 304 303 303 302 302 301 300 299 298 300 301 300 299 298
290 287 285 281 278 275 275 276 277 278 277 274 268 262 256 252 252 253 252 247 242 238 233 230 228 229 229 231 233 235 239 244 248 253 258 264 270 276 282 283 283 284 285 286 288 290 291 290 288 287 286 287 289 290 291 294 296 297 299 300 300 300 299 299 301 302 303 304 304 303 303 303 302 303 303 303 302 302 302 300 299 298 299 300 300 299 298 297
295 293 291 288 285 281 277 274 273 273 273 273 271 267 262 256 251 251 253 252 249 245 241 236 233 233 233 233 234 237 241 246 250 254 258 261 267 275 278 279 279 280 283 285 288 289 289 288 287 286 286 287 289 291 292 294 295 297 298 299 299 299 299 300 302 303 304 304 304 303 303 303 303 302 302 301 301 301 300 299 298 298 300 301 300 299 298 297
299 298 295 292 290 286 282 277 273 271 269 269 269 267 265 261 255 251 251 252 252 251 249 245 242 240 241 242 243 245 247 251 254 257 258 258 263 270 270 270 274 279 282 286 288 287 287 287 286 285 286 288 290 290 292 294 296 297 298 298 298 299 300 302 303 304 304 304 304 303 303 303 302 302 301 300 300 300 300 298 298 299 301 301 300 299 298 298
301 300 298 295 291 287 284 279 275 270 266 266 266 265 264 263 259 254 252 252 252 252 251 250 248 247 246 247 250 254 258 260 261 262 263 263 266 269 269 272 277 281 283 284 285 284 283 285 286 287 288 289 290 291 293 295 296 297 297 298 299 300 301 303 304 304 304 304 304 303 303 304 303 302 301 300 301 301 299 299 300 301 301 301 300 299 298 300
304 302 299 297 294 290 287 282 276 271 267 264 262 262 261 261 260 257 254 253 253 252 252 252 252 251 249 248 252 260 265 265 265 265 268 269 270 270 271 275 279 279 278 279 282 283 284 286 288 288 288 289 290 292 294 296 297 297 297 298 300 301 302 303 304 304 303 303 303 303 304 304 303 302 301 301 302 302 300 300 301 302 301 300 299 298 299 300
306 304 302 300 297 295 290 285 279 274 269 264 261 260 260 260 261 259 256 255 254 253 253 253 253 253 252 249 249 254 259 261 262 264 267 269 271 272 274 278 279 278 278 279 282 283 284 286 287 288 289 290 292 293 294 295 297 298 298 299 300 302 303 304 303 303 302 302 303 303 303 303 303 301 300 302 303 302 301 301 301 301 301 300 298 298 299 299
307 306 304 302 300 297 291 286 281 276 271 267 263 260 258 258 259 259 258 257 256 255 255 255 254 254 255 254 252 252 255 258 261 264 267 268 269 271 275 278 278 277 279 281 282 281 283 285 286 287 289 291 292 293 294 296 298 298 299 300 301 303 304 303 302 302 301 302 303 304 303 303 302 300 301 302 302 301 301 301 301 301 300 298 297 297 297 296
308 307 306 305 302 298 292 287 283 278 273 269 265 261 257 256 257 259 258 257 257 256 256 256 257 257 258 260 261 261 262 264 265 267 269 270 270 271 274 275 275 275 278 279 279 280 283 285 287 288 290 290 291 292 294 297 298 299 300 301 302 303 302 301 302 302 302 303 303 303 302 301 300 300 301 302 301 301 301 301 301 301 299 296 296 297 296 296
308 308 308 307 304 299 294 290 285 280 274 268 264 260 257 254 254 256 257 258 258 258 258 259 261 262 263 265 266 266 266 267 268 269 270 271 273 275 276 276 276 277 278 278 281 284 286 288 289 290 290 291 292 294 296 298 300 300 301 302 302 301 300 300 301 302 302 302 302 301 301 301 300 300 301 301 301 302 302 301 302 301 298 297 298 298 298 297
309 310 310 308 306 302 297 293 287 281 275 268 261 257 255 253 252 253 255 258 259 259 260 261 262 264 264 265 265 265 265 266 267 269 270 273 275 277 278 278 278 279 280 282 285 287 288 289 290 291 292 293 295 296 298 300 301 302 302 302 302 301 300 301 302 302 302 301 301 302 302 302 302 302 302 301 302 302 302 302 302 300 298 298 299 299 298 297
311 312 310 310 310 306 300 295 289 284 277 270 262 257 254 252 251 252 254 256 257 258 259 260 261 262 262 263 264 265 265 267 268 269 271 274 276 277 278 278 278 281 284 286 286 286 286 288 289 291 292 294 295 297 298 299 300 301 301 301 300 300 300 301 301 301 301 301 303 304 303 303 303 303 303 302 302 302 302 302 301 299 299 299 299 299 299 299
312 312 312 313 314 309 303 297 291 285 279 273 266 261 257 254 253 253 254 254 256 257 258 259 260 262 263 264 265 266 267 268 270 271 273 274 275 276 278 281 282 284 285 284 284 284 285 287 288 290 292 293 295 297 298 299 299 299 299 299 300 300 301 302 301 301 301 303 304 304 303 303 303 302 302 302 301 301 302 302 300 299 300 300 300 300 300 300
313 313 314 316 316 311 304 299 295 289 282 276 270 265 261 258 255 254 254 254 256 257 259 260 262 263 264 265 266 267 268 270 271 273 273 274 276 278 282 284 284 284 283 283 283 284 286 287 289 291 292 293 295 297 298 298 299 299 299 299 300 301 302 302 303 303 303 304 305 304 303 303 302 303 303 301 301 302 303 301 299 299 300 300 300 300 300 300
313 314 316 318 317 312 304 302 300 295 287 280 272 267 264 260 257 255 255 256 256 258 260 261 263 264 265 265 266 267 269 270 271 273 275 277 280 282 282 282 282 283 283 284 285 286 287 290 291 292 292 294 295 297 298 298 299 299 300 300 301 301 302 302 303 304 304 305 306 304 303 302 302 302 301 300 301 302 301 299 299 300 300 300 301 301 300 299
313 315 317 319 317 312 306 304 303 299 292 285 276 270 266 262 259 257 257 257 258 259 260 262 263 264 266 267 267 267 267 269 272 274 278 280 281 281 281 281 282 283 284 285 287 288 289 291 292 293 294 296 298 298 299 300 300 301 301 301 302 303 303 303 304 304 304 306 306 305 303 303 303 302 300 300 301 301 300 300 300 301 300 300 300 299 299 299
313 315 318 318 316 311 306 304 303 299 294 289 282 275 272 268 264 262 261 261 261 262 262 263 264 264 265 266 267 267 269 272 276 278 279 280 281 281 282 283 284 285 286 287 289 290 290 292 294 295 297 298 299 300 300 301 301 302 302 303 303 304 304 304 304 304 305 306 305 304 303 303 303 301 300 302 302 302 300 300 299 299 299 299 299 299 300 301
312 315 318 317 315 312 306 303 301 298 294 289 285 280 276 273 270 268 267 266 266 265 264 264 265 265 266 269 272 274 276 276 277 278 279 280 282 282 283 285 286 287 288 289 290 291 292 294 296 297 298 299 299 300 300 301 302 303 303 304 304 304 304 304 305 305 305 305 304 303 302 302 301 300 301 302 301 300 300 299 299 299 299 300 300 300 301 301
312 315 317 316 314 311 307 302 300 297 293 289 287 284 282 279 276 274 271 269 267 266 266 266 267 270 272 273 274 275 276 276 277 278 280 281 283 284 285 286 287 288 288 290 291 293 295 297 298 298 298 299 299 300 301 303 303 303 303 303 303 303 304 304 306 306 307 307 305 304 304 303 301 301 302 303 302 302 302 301 301 301 301 301 301 301 301 300
312 315 315 314 313 311 307 303 300 296 293 290 288 287 285 282 279 275 273 271 267 266 268 268 268 269 269 270 271 272 275 277 279 281 282 283 284 285 286 287 288 289 291 293 295 296 297 298 299 299 299 300 300 301 303 304 303 303 303 303 302 302 303 304 305 306 307 307 305 305 306 304 302 302 303 303 304 304 303 302 302 302 301 301 300 300 300 299
311 313 313 312 311 309 305 303 299 296 293 291 289 288 286 282 280 276 272 271 269 267 267 267 267 268 269 271 273 275 277 280 282 283 284 285 286 287 288 289 290 292 294 295 296 297 298 299 299 300 301 302 302 303 305 305 304 304 305 305 305 305 305 306 306 306 307 306 305 305 305 303 302 303 303 304 304 303 302 302 302 301 300 300 300 300 300 301
310 311 310 309 309 307 303 300 296 293 289 285 283 283 281 279 277 275 271 269 268 268 269 271 274 276 276 276 277 278 279 281 283 284 286 286 287 289 290 291 293 294 295 296 297 298 299 299 300 302 303 303 303 304 305 305 305 305 306 306 306 306 307 307 307 307 306 306 305 305 306 305 304 304 304 305 304 303 302 302 301 301 301 301 302 302 302 302
309 309 307 306 306 305 301 296 293 290 286 281 276 273 273 272 271 272 272 271 271 271 272 274 275 276 276 277 278 279 281 283 285 286 287 288 289 291 292 293 294 295 296 297 298 299 300 301 302 302 303 302 303 304 306 306 305 305 306 306 305 305 306 307 306 306 306 306 306 306 306 306 306 305 306 306 305 304 304 304 304 303 303 303 304 304 303 303
307 306 304 303 303 303 300 294 289 287 284 280 277 273 272 271 271 272 273 273 273 272 272 273 274 276 278 280 282 284 285 286 287 288 289 290 291 292 294 295 296 297 298 299 300 301 302 303 303 304 304 304 305 306 307 307 306 306 306 305 305 305 306 306 306 306 307 307 307 306 306 306 306 305 306 307 306 306 306 306 305 305 304 304 304 303 303 302
305 304 302 302 301 301 300 295 289 285 283 281 279 277 275 274 274 274 274 274 275 275 277 278 280 282 284 286 287 288 289 289 290 290 291 293 294 295 296 297 298 299 300 301 302 303 304 304 305 306 307 307 309 309 309 309 307 307 307 306 306 306 306 307 307 307 308 308 308 307 306 306 306 306 307 307 306 306 306 305 304 303 303 303 302 302 302 302
302 301 300 300 299 299 298 295 290 286 282 280 278 278 277 277 277 278 279 281 282 283 284 285 286 287 288 289 289 290 291 292 293 294 295 296 297 297 298 299 300 301 302 302 303 304 305 306 308 309 309 310 311 310 310 310 309 308 307 307 307 308 308 308 308 308 308 309 308 308 308 308 307 307 308 307 306 305 304 303 302 302 302 302 302 302 302 303
300 300 299 298 297 297 296 295 291 286 282 279 278 278 280 281 282 283 284 285 286 287 287 288 288 289 289 290 291 292 294 295 296 297 298 299 300 300 301 302 302 303 303 304 306 307 308 309 311 312 311 311 312 311 311 311 310 309 308 308 308 309 309 309 309 309 309 310 310 309 309 308 308 308 307 305 304 303 303 302 302 302 303 303 303 303 304 305
299 299 298 298 298 298 297 294 291 288 285 282 281 282 283 284 285 285 285 285 286 287 287 288 289 290 291 292 293 295 297 298 299 300 301 302 303 304 304 304 304 305 306 308 309 311 312 312 313 313 312 311 312 312 312 312 311 310 310 309 310 310 310 310 310 310 310 310 310 309 308 307 307 306 305 304 304 303 303 303 303 303 304 304 304 305 306 307
298 299 300 300 301 301 300 297 294 292 291 288 287 286 286 286 286 287 287 287 288 289 290 291 292 293 295 296 298 298 299 300 301 302 303 304 305 305 305 306 307 308 310 312 313 313 314 313 313 313 312 311 311 312 312 312 312 311 310 310 310 311 311 310 310 310 310 310 309 308 307 306 305 305 304 304 304 304 304 303 303 304 305 305 306 307 307 308
299 300 301 302 303 304 303 302 300 298 297 295 294 292 291 291 291 291 291 292 293 294 295 296 297 298 299 300 300 301 302 303 304 305 305 306 306 307 308 309 310 312 312 313 314 314 314 313 312 312 311 310 311 311 311 311 311 310 310 310 310 310 310 310 310 309 308 308 307 305 305 305 305 304 304 304 304 304 304 304 305 306 306 307 307 307 307 307
300 301 302 303 303 303 302 301 301 300 299 298 297 297 296 296 296 297 297 297 298 298 299 300 300 301 302 302 303 304 305 305 306 306 307 308 309 310 311 312 313 313 314 314 314 313 312 312 311 312 312 311 310 311 310 310 310 310 309 310 310 310 310 309 309 308 307 306 305 305 305 305 305 304 304 305 305 305 305 305 306 306 307 307 307 307 307 307
Height
10734 10736 10738 10739 10741 10742 10743 10745 10746 10747 10748 10750 10751 10752 10754 10755 10756 10758 10759 10760 10761 10763 10764 10765 10765 10766 10767 10768 10768 10769 10769 10770 10770 10770 10770 10770 10770 10770 10770 10769 10769 10768 10768 10768 10767 10767 10766 10765 10764 10763 10762 10761 10760 10759 10758 10757 10755 10753 10752 10750 10747 10745 10743 10741 10739 10736 10735 10732 10728 10726 10724 10721 10717 10714 10712 10711 10708 10705 10702 10697 10693 10687 10685 10686 10682 10678 10678 10675
10733 10735 10736 10738 10739 10740 10741 10742 10744 10745 10746 10747 10748 10749 10751 10752 10753 10754 10755 10757 10758 10759 10761 10762 10763 10764 10764 10765 10765 10766 10766 10767 10767 10767 10767 10767 10767 10766 10766 10766 10765 10765 10764 10764 10763 10763 10762 10761 10760 10759 10758 10757 10756 10755 10753 10752 10750 10749 10747 10745 10742 10740 10738 10735 10733 10730 10728 10725 10722 10720 10717 10715 10711 10707 10705 10704 10701 10698 10694 10688 10685 10683 10679 10678 10676 10672 10670 10669
10731 10733 10734 10736 10737 10738 10739 10740 10741 10742 10744 10745 10746 10747 10748 10749 10750 10751 10752 10753 10755 10756 10757 10759 10760 10760 10761 10762 10763 10763 10763 10764 10764 10764 10764 10764 10763 10763 10763 10762 10762 10761 10761 10760 10760 10759 10758 10758 10757 10755 10755 10753 10752 10750 10749 10747 10745 10744 10742 10740 10737 10734 10732 10729 10727 10724 10722 10719 10716 10713 10710 10708 10705 10701 10699 10697 10694 10691 10687 10680 10678 10677 10673 10671 10669 10665 10662 10662
10729 10731 10732 10733 10734 10735 10737 10738 10739 10740 10741 10742 10743 10744 10745 10746 10747 10748 10749 10750 10752 10753 10754 10755 10756 10757 10758 10759 10760 10760 10760 10761 10761 10761 10761 10760 10760 10760 10759 10759 10758 10757 10757 10757 10756 10755 10754 10754 10753 10751 10750 10749 10747 10746 10744 10742 10741 10739 10737 10735 10732 10729 10726 10724 10721 10718 10715 10713 10710 10707 10703 10700 10697 10696 10693 10691 10687 10684 10681 10675 10672 10671 10667 10664 10664 10661 10654 10653
10727 10729 10730 10731 10732 10733 10734 10735 10736 10737 10739 10739 10740 10741 10742 10743 10744 10745 10746 10748 10749 10750 10751 10752 10753 10754 10755 10756 10756 10757 10757 10757 10757 10757 10757 10756 10756 10756 10756 10755 10754 10754 10754 10753 10752 10751 10750 10749 10748 10747 10746 10744 10742 10741 10739 10738 10736 10734 10732 10729 10727 10724 10721 10718 10715 10712 10709 10707 10704 10700 10697 10694 10691 10690 10688 10685 10681 10677 10674 10670 10666 10664 10662 10658 10657 10658 10651 10644
10726 10727 10728 10729 10730 10731 10732 10733 10734 10735 10736 10736 10737 10738 10739 10740 10741 10742 10743 10745 10746 10747 10748 10749 10750 10751 10752 10753 10753 10754 10754 10754 10753 10753 10753 10753 10753 10753 10752 10751 10751 10751 10750 10749 10748 10747 10746 10745 10744 10742 10741 10739 10737 10736 10734 10732 10730 10728 10726 10724 10721 10718 10715 10712 10709 10706 10703 10701 10698 10695 10692 10689 10685 10684 10682 10678 10675 10670 10668 10665 10661 10659 10657 10654 10650 10650 10648 10640
10725 10726 10727 10728 10729 10729 10730 10731 10731 10732 10732 10733 10734 10734 10736 10737 10738 10739 10740 10742 10743 10744 10746 10746 10748 10749 10749 10750 10750 10750 10750 10750 10750 10750 10750 10750 10750 10749 10749 10748 10747 10747 10746 10745 10744 10743 10741 10740 10739 10737 10735 10734 10732 10730 10729 10727 10725 10722 10720 10718 10715 10712 10709 10706 10703 10700 10697 10695 10692 10689 10686 10684 10680 10678 10676 10672 10669 10665 10661 10658 10655 10653 10651 10649 10645 10641 10640 10636
10724 10725 10726 10726 10727 10727 10728 10728 10728 10729 10729 10729 10730 10731 10732 10733 10734 10735 10737 10738 10740 10741 10743 10744 10745 10746 10747 10747 10747 10747 10747 10747 10747 10747 10747 10747 10747 10746 10745 10744 10744 10743 10742 10740 10739 10738 10737 10735 10734 10732 10730 10728 10727 10725 10723 10721 10719 10717 10714 10712 10709 10707 10704 10701 10698 10695 10692 10690 10687 10683 10680 10677 10674 10672 10670 10667 10665 10660 10655 10652 10650 10648 10645 10642 10639 10635 10632 10629
10723 10723 10724 10724 10725 10725 10725 10725 10725 10726 10726 10726 10726 10727 10727 10728 10729 10730 10732 10734 10736 10738 10739 10740 10741 10743 10744 10743 10743 10743 10744 10744 10744 10744 10744 10743 10743 10742 10741 10740 10739 10738 10737 10736 10735 10734 10732 10731 10729 10727 10726 10723 10722 10720 10718 10716 10713 10711 10709 10707 10704 10701 10699 10696 10693 10690 10686 10684 10681 10676 10673 10671 10668 10666 10665 10662 10660 10656 10650 10647 10645 10642 10639 10635 10632 10629 10625 10622
10721 10722 10722 10722 10723 10723 10722 10722 10722 10722 10722 10722 10722 10722 10722 10723 10724 10726 10728 10729 10731 10733 10735 10737 10738 10739 10739 10739 10740 10740 10740 10740 10740 10740 10740 10739 10739 10738 10737 10736 10735 10734 10733 10732 10730 10729 10728 10726 10725 10723 10721 10719 10717 10715 10712 10710 10708 10706 10703 10701 10699 10696 10693 10691 10688 10684 10681 10678 10676 10670 10666 10665 10664 10661 10658 10657 10655 10650 10644 10642 10640 10636 10632 10628 10625 10622 10619 10615
10720 10720 10720 10720 10720 10720 10720 10720 10719 10719 10718 10718 10717 10717 10718 10718 10719 10721 10722 10724 10726 10728 10730 10732 10733 10734 10735 10735 10736 10737 10736 10736 10736 10736 10735 10735 10734 10733 10732 10731 10731 10730 10728 10727 10726 10725 10724 10722 10720 10718 10716 10714 10712 10709 10707 10705 10703 10701 10698 10696 10695 10692 10688 10686 10683 10679 10676 10673 10670 10665 10659 10658 10659 10656 10652 10651 10650 10644 10639 10637 10634 10630 10625 10622 10619 10615 10611 10607
10718 10718 10719 10719 10718 10718 10718 10717 10716 10715 10714 10713 10713 10713 10713 10713 10714 10715 10717 10719 10721 10723 10725 10727 10729 10730 10730 10731 10732 10732 10732 10732 10732 10731 10731 10731 10730 10729 10728 10727 10727 10725 10724 10723 10722 10721 10719 10717 10716 10714 10711 10709 10707 10705 10702 10700 10698 10696 10694 10691 10689 10687 10683 10680 10678 10674 10671 10668 10665 10661 10654 10650 10653 10652 10646 10643 10642 10638 10635 10632 10628 10624 10619 10615 10612 10608 10603 10599
10716 10717 10717 10717 10716 10716 10715 10714 10713 10712 10711 10710 10709 10708 10708 10708 10709 10710 10711 10713 10715 10717 10719 10722 10724 10725 10726 10727 10727 10728 10728 10728 10727 10727 10727 10726 10726 10725 10724 10723 10722 10722 10721 10720 10718 10717 10715 10713 10711 10709 10706 10705 10702 10700 10698 10696 10694 10691 10690 10687 10684 10683 10679 10674 10673 10669 10666 10663 10660 10657 10651 10643 10645 10647 10643 10638 10633 10631 10629 10625 10621 10617 10613 10608 10603 10599 10596 10591
10714 10715 10715 10714 10714 10714 10713 10711 10710 10708 10707 10706 10705 10704 10704 10703 10704 10705 10706 10708 10709 10712 10715 10717 10719 10720 10721 10722 10723 10724 10724 10724 10723 10723 10723 10722 10721 10721 10720 10719 10718 10718 10717 10716 10714 10712 10711 10709 10707 10704 10702 10701 10698 10696 10694 10692 10690 10687 10685 10682 10679 10678 10675 10671 10667 10664 10661 10658 10654 10652 10647 10639 10637 10640 10640 10635 10628 10625 10623 10618 10615 10611 10607 10603 10597 10591 10588 10584
10713 10713 10712 10712 10712 10711 10710 10708 10707 10706 10704 10703 10702 10701 10700 10699 10699 10700 10701 10703 10705 10708 10710 10712 10714 10715 10716 10717 10719 10720 10720 10720 10720 10720 10719 10718 10718 10717 10716 10715 10714 10714 10713 10711 10710 10708 10706 10704 10702 10700 10698 10696 10694 10692 10689 10687 10685 10682 10679 10678 10674 10671 10670 10668 10662 10658 10657 10653 10648 10646 10642 10635 10631 10632 10633 10629 10622 10618 10615 10611 10608 10604 10600 10597 10592 10586 10581 10578
10711 10711 10710 10710 10709 10709 10708 10706 10705 10703 10702 10701 10699 10698 10697 10696 10696 10697 10698 10700 10702 10704 10706 10708 10710 10711 10712 10714 10715 10716 10716 10717 10717 10716 10716 10715 10714 10713 10712 10711 10711 10710 10709 10707 10705 10704 10702 10700 10698 10696 10694 10692 10690 10688 10685 10683 10681 10678 10674 10671 10670 10667 10664 10663 10658 10652 10651 10648 10643 10640 10636 10629 10624 10625 10625 10621 10617 10611 10607 10603 10600 10597 10593 10588 10584 10579 10575 10571
10709 10709 10708 10708 10707 10706 10706 10704 10703 10702 10700 10699 10697 10696 10695 10694 10694 10694 10695 10697 10699 10701 10703 10705 10706 10708 10709 10710 10711 10712 10713 10713 10713 10713 10712 10712 10711 10710 10709 10708 10707 10706 10704 10703 10701 10700 10698 10696 10694 10692 10689 10688 10685 10684 10681 10678 10677 10674 10671 10666 10664 10661 10658 10658 10654 10648 10645 10641 10637 10634 10631 10623 10617 10617 10617 10613 10610 10605 10601 10597 10593 10590 10586 10581 10576 10571 10568 10564
10707 10707 10706 10706 10705 10704 10704 10703 10701 10700 10699 10698 10696 10695 10694 10694 10693 10694 10694 10695 10697 10698 10701 10702 10704 10705 10706 10707 10708 10709 10709 10710 10710 10710 10709 10708 10707 10706 10705 10704 10703 10702 10700 10699 10697 10695 10693 10691 10690 10688 10685 10683 10681 10679 10677 10674 10671 10669 10667 10663 10660 10656 10652 10651 10649 10643 10640 10637 10632 10628 10625 10618 10611 10611 10609 10605 10602 10598 10594 10591 10587 10583 10578 10573 10568 10564 10560 10556
10706 10705 10705 10704 10703 10702 10701 10701 10700 10699 10698 10697 10696 10695 10694 10693 10693 10693 10693 10694 10695 10697 10698 10700 10701 10702 10703 10704 10705 10706 10706 10707 10707 10707 10706 10704 10704 10703 10702 10701 10699 10698 10696 10695 10693 10691 10690 10687 10685 10684 10681 10678 10676 10674 10672 10669 10667 10664 10661 10658 10655 10652 10648 10645 10642 10637 10634 10632 10627 10622 10619 10612 10606 10605 10602 10598 10594 10590 10586 10583 10579 10575 10570 10565 10561 10557 10553 10549
10705 10704 10703 10702 10701 10700 10699 10698 10698 10697 10696 10696 10695 10694 10693 10692 10692 10692 10692 10693 10694 10695 10696 10697 10698 10699 10701 10702 10702 10703 10703 10704 10704 10703 10702 10701 10700 10699 10698 10697 10695 10694 10692 10691 10689 10687 10686 10683 10681 10679 10677 10674 10671 10669 10666 10664 10661 10658 10655 10653 10650 10647 10644 10640 10636 10631 10626 10625 10621 10617 10612 10605 10600 10599 10595 10590 10586 10582 10578 10575 10571 10566 10562 10558 10554 10550 10545 10540
10703 10703 10702 10701 10700 10699 10698 10697 10696 10695 10694 10694 10694 10693 10692 10692 10691 10691 10691 10692 10692 10693 10694 10695 10695 10696 10698 10699 10700 10700 10701 10701 10700 10699 10698 10698 10697 10696 10695 10693 10691 10690 10688 10687 10685 10683 10682 10679 10676 10675 10672 10669 10666 10664 10662 10659 10656 10653 10649 10647 10643 10641 10639 10635 10631 10626 10620 10617 10615 10610 10606 10598 10593 10591 10588 10583 10578 10574 10571 10567 10562 10557 10553 10550 10547 10542 10536 10530
10702 10701 10700 10700 10699 10698 10696 10695 10694 10693 10692 10692 10692 10691 10691 10690 10690 10690 10690 10690 10691 10691 10692 10693 10693 10694 10695 10696 10697 10697 10698 10697 10696 10696 10695 10694 10694 10693 10691 10689 10687 10686 10684 10683 10681 10679 10677 10674 10672 10670 10667 10664 10661 10658 10657 10654 10651 10647 10644 10640 10637 10635 10633 10630 10626 10621 10615 10611 10608 10603 10599 10592 10587 10584 10581 10576 10570 10567 10564 10559 10553 10547 10543 10542 10539 10534 10527 10520
10700 10699 10699 10698 10697 10696 10695 10694 10692 10691 10690 10690 10689 10689 10689 10689 10688 10688 10688 10688 10689 10689 10690 10691 10691 10692 10693 10693 10693 10693 10693 10693 10693 10692 10692 10691 10690 10689 10687 10685 10683 10681 10679 10678 10677 10675 10672 10669 10668 10665 10662 10659 10656 10653 10651 10649 10646 10642 10638 10634 10631 10628 10626 10623 10621 10616 10610 10605 10601 10597 10592 10585 10579 10577 10574 10568 10563 10559 10555 10550 10543 10538 10536 10534 10531 10524 10518 10512
10698 10697 10696 10695 10694 10693 10692 10691 10690 10689 10688 10687 10687 10687 10686 10686 10686 10686 10686 10686 10686 10687 10687 10688 10688 10689 10689 10690 10690 10690 10690 10689 10689 10688 10687 10687 10685 10684 10683 10681 10679 10677 10676 10675 10673 10671 10667 10664 10664 10661 10657 10654 10651 10648 10645 10643 10641 10637 10633 10628 10625 10622 10618 10616 10613 10610 10605 10599 10594 10588 10584 10578 10570 10569 10567 10561 10557 10553 10547 10542 10535 10530 10529 10526 10521 10515 10509 10504
10696 10695 10694 10693 10692 10690 10689 10688 10687 10686 10685 10684 10684 10684 10683 10683 10683 10684 10684 10684 10684 10684 10685 10685 10685 10685 10686 10687 10687 10687 10687 10686 10685 10684 10683 10682 10681 10679 10678 10677 10675 10673 10671 10671 10669 10666 10662 10659 10658 10656 10652 10649 10646 10643 10639 10637 10636 10632 10627 10623 10621 10616 10612 10609 10605 10602 10598 10593 10588 10579 10576 10572 10561 10557 10558 10554 10551 10546 10539 10533 10526 10523 10521 10516 10511 10506 10501 10496
10694 10692 10691 10690 10688 10687 10685 10684 10684 10683 10681 10681 10681 10680 10680 10679 10679 10680 10681 10680 10681 10682 10682 10682 10682 10682 10682 10683 10683 10684 10683 10682 10681 10679 10679 10678 10677 10675 10674 10672 10671 10670 10667 10666 10665 10661 10657 10654 10653 10650 10647 10644 10640 10638 10634 10631 10630 10627 10622 10617 10615 10611 10606 10602 10597 10594 10590 10586 10581 10571 10566 10564 10553 10543 10543 10543 10542 10538 10530 10524 10519 10515 10511 10507 10502 10497 10493 10490
10691 10690 10688 10686 10685 10683 10681 10680 10679 10678 10678 10678 10677 10677 10677 10676 10676 10677 10677 10677 10678 10678 10678 10678 10678 10678 10678 10678 10679 10680 10679 10678 10676 10675 10674 10674 10672 10671 10670 10668 10667 10665 10663 10662 10660 10656 10652 10650 10647 10644 10641 10638 10635 10632 10628 10625 10623 10621 10616 10612 10609 10604 10600 10596 10590 10587 10583 10579 10574 10565 10557 10555 10547 10535 10530 10531 10531 10527 10520 10515 10512 10508 10503 10498 10494 10489 10486 10483
10688 10686 10685 10683 10681 10679 10677 10675 10674 10674 10673 10673 10673 10673 10673 10672 10672 10673 10673 10673 10674 10674 10674 10675 10674 10674 10674 10674 10674 10674 10673 10672 10671 10670 10670 10669 10668 10666 10665 10664 10662 10660 10657 10657 10656 10651 10647 10645 10641 10638 10635 10632 10629 10625 10623 10620 10617 10614 10610 10606 10602 10598 10593 10589 10584 10580 10575 10571 10568 10560 10551 10545 10539 10528 10521 10523 10522 10515 10510 10507 10504 10500 10495 10490 10485 10481 10480 10477
10685 10683 10681 10679 10677 10675 10672 10670 10669 10669 10669 10668 10669 10669 10669 10669 10668 10669 10669 10669 10669 10670 10670 10670 10670 10670 10670 10669 10669 10668 10668 10668 10667 10666 10665 10665 10663 10662 10661 10659 10658 10655 10652 10652 10651 10646 10643 10640 10636 10632 10630 10627 10623 10619 10616 10614 10611 10608 10604 10600 10595 10591 10586 10581 10576 10572 10566 10562 10559 10552 10544 10538 10531 10520 10513 10514 10513 10507 10503 10499 10495 10492 10486 10481 10477 10475 10473 10470
10682 10680 10678 10675 10673 10670 10667 10666 10665 10664 10663 10664 10664 10665 10665 10665 10664 10664 10665 10665 10665 10666 10666 10666 10666 10666 10666 10665 10665 10664 10663 10663 10663 10662 10661 10660 10658 10657 10656 10654 10652 10650 10648 10647 10645 10641 10638 10634 10630 10627 10624 10621 10617 10613 10611 10608 10605 10601 10597 10593 10589 10584 10579 10574 10568 10563 10557 10553 10551 10544 10537 10531 10524 10516 10510 10504 10501 10499 10496 10491 10487 10483 10476 10472 10470 10469 10466 10463
10679 10676 10674 10671 10668 10665 10663 10661 10659 10658 10658 10659 10659 10659 10660 10661 10660 10660 10660 10660 10661 10662 10662 10662 10662 10662 10662 10662 10661 10660 10659 10659 10658 10657 10656 10655 10653 10652 10651 10650 10648 10645 10643 10642 10639 10636 10632 10628 10625 10621 10618 10614 10611 10607 10604 10602 10598 10593 10588 10584 10581 10577 10572 10568 10563 10556 10550 10545 10541 10536 10530 10524 10517 10512 10508 10499 10492 10489 10486 10482 10479 10474 10467 10463 10462 10461 10458 10454
10676 10673 10670 10668 10664 10661 10658 10656 10654 10654 10653 10654 10654 10654 10654 10655 10656 10656 10656 10656 10657 10657 10657 10658 10658 10658 10658 10658 10657 10656 10655 10654 10653 10652 10651 10650 10649 10647 10646 10645 10643 10641 10639 10637 10634 10631 10627 10623 10619 10615 10610 10606 10603 10600 10597 10594 10590 10585 10579 10573 10570 10567 10563 10561 10556 10548 10542 10536 10532 10527 10520 10516 10510 10504 10501 10494 10487 10482 10477 10473 10470 10464 10459 10456 10455 10453 10449 10446
10673 10670 10667 10664 10661 10657 10655 10653 10651 10650 10649 10649 10650 10650 10650 10651 10651 10652 10652 10653 10653 10653 10653 10654 10654 10654 10653 10653 10652 10652 10651 10650 10649 10648 10647 10646 10644 10642 10640 10639 10638 10637 10634 10632 10630 10627 10624 10620 10615 10609 10605 10600 10597 10594 10591 10588 10585 10580 10573 10566 10562 10556 10553 10553 10549 10541 10535 10528 10524 10519 10511 10507 10503 10498 10493 10487 10481 10476 10471 10467 10462 10456 10451 10449 10447 10444 10440 10436
10670 10667 10663 10661 10658 10654 10652 10650 10648 10647 10647 10646 10646 10646 10647 10647 10648 10648 10649 10649 10649 10649 10650 10650 10650 10650 10649 10649 10648 10648 10647 10646 10645 10643 10642 10641 10640 10638 10636 10634 10632 10631 10629 10627 10625 10622 10620 10617 10611 10605 10599 10595 10592 10589 10584 10580 10577 10573 10566 10560 10555 10548 10542 10541 10539 10533 10528 10523 10518 10511 10503 10499 10496 10492 10487 10481 10475 10471 10467 10460 10454 10449 10445 10442 10439 10435 10431 10426
10667 10664 10661 10658 10655 10652 10650 10648 10646 10646 10645 10644 10644 10644 10644 10644 10645 10645 10645 10646 10646 10646 10646 10646 10646 10646 10646 10645 10644 10644 10643 10642 10640 10639 10638 10637 10635 10634 10632 10629 10627 10625 10622 10621 10618 10616 10614 10611 10606 10600 10594 10590 10587 10583 10578 10573 10569 10565 10559 10552 10548 10541 10534 10530 10527 10522 10518 10517 10513 10504 10496 10491 10488 10486 10481 10475 10470 10465 10461 10454 10446 10443 10439 10434 10431 10427 10422 10417
10665 10662 10659 10655 10653 10650 10648 10646 10645 10644 10643 10642 10642 10642 10642 10642 10642 10642 10642 10643 10643 10643 10643 10643 10642 10642 10642 10642 10641 10640 10639 10638 10636 10635 10633 10632 10631 10630 10628 10625 10622 10619 10616 10614 10612 10609 10608 10605 10599 10594 10588 10584 10581 10577 10571 10566 10561 10556 10551 10545 10539 10535 10528 10523 10520 10514 10509 10508 10506 10498 10490 10484 10482 10482 10476 10470 10467 10462 10455 10447 10440 10436 10431 10425 10422 10417 10412 10407
10662 10660 10657 10654 10651 10649 10646 10645 10643 10643 10642 10641 10640 10640 10640 10640 10640 10640 10640 10640 10640 10640 10640 10639 10639 10639 10638 10637 10637 10636 10636 10634 10632 10632 10630 10628 10627 10625 10623 10620 10617 10614 10611 10608 10605 10602 10601 10600 10593 10585 10580 10576 10573 10568 10563 10557 10552 10547 10542 10536 10530 10526 10520 10515 10512 10508 10503 10501 10498 10490 10483 10477 10474 10473 10470 10466 10462 10457 10448 10440 10434 10428 10422 10417 10412 10406 10401 10397
10660 10657 10654 10652 10649 10647 10645 10643 10642 10641 10640 10639 10639 10638 10638 10638 10638 10638 10637 10637 10637 10637 10637 10636 10635 10635 10635 10634 10633 10632 10632 10631 10629 10628 10627 10625 10623 10620 10618 10615 10612 10609 10605 10602 10599 10594 10592 10593 10589 10580 10573 10570 10564 10559 10556 10551 10544 10538 10533 10527 10521 10517 10512 10507 10503 10501 10497 10495 10492 10486 10479 10472 10466 10462 10461 10461 10457 10450 10442 10434 10427 10421 10415 10409 10403 10396 10392 10386
10658 10655 10652 10650 10647 10645 10643 10642 10641 10640 10639 10638 10638 10637 10636 10636 10636 10636 10635 10635 10635 10634 10634 10633 10632 10632 10632 10631 10630 10629 10629 10628 10626 10624 10623 10620 10618 10615 10612 10609 10606 10603 10599 10595 10592 10588 10584 10584 10582 10574 10567 10563 10558 10552 10548 10544 10538 10532 10525 10519 10513 10508 10504 10500 10495 10492 10490 10488 10486 10483 10477 10469 10462 10456 10453 10454 10451 10443 10434 10426 10418 10412 10405 10398 10392 10387 10382 10376
10655 10653 10650 10648 10645 10643 10642 10641 10639 10638 10637 10637 10636 10635 10635 10634 10634 10634 10633 10633 10633 10632 10631 10631 10630 10630 10629 10629 10628 10626 10625 10624 10622 10620 10618 10615 10613 10610 10606 10603 10600 10596 10592 10588 10584 10581 10577 10575 10573 10568 10561 10556 10551 10546 10541 10536 10530 10526 10520 10514 10508 10502 10497 10494 10490 10485 10481 10479 10475 10473 10472 10462 10453 10450 10447 10443 10440 10433 10425 10416 10409 10402 10395 10387 10381 10377 10372 10365
10653 10650 10648 10645 10643 10641 10640 10639 10638 10636 10636 10635 10635 10634 10633 10632 10632 10632 10631 10631 10630 10630 10629 10629 10628 10627 10627 10626 10625 10623 10621 10619 10617 10616 10613 10609 10607 10604 10600 10597 10593 10589 10586 10582 10577 10574 10570 10567 10564 10560 10554 10549 10543 10539 10536 10529 10522 10517 10513 10508 10502 10498 10493 10489 10487 10482 10476 10472 10466 10462 10464 10455 10442 10439 10440 10435 10429 10422 10414 10407 10400 10393 10385 10378 10372 10366 10361 10354
10651 10648 10646 10643 10641 10639 10638 10637 10636 10635 10634 10633 10633 10632 10631 10631 10630 10630 10629 10629 10628 10628 10627 10626 10625 10624 10624 10622 10621 10619 10617 10614 10612 10610 10607 10604 10601 10598 10594 10590 10587 10583 10579 10575 10571 10566 10562 10559 10556 10552 10547 10542 10535 10531 10528 10522 10515 10509 10505 10499 10493 10490 10487 10483 10481 10478 10473 10467 10459 10454 10454 10448 10436 10430 10430 10429 10422 10412 10404 10398 10391 10383 10375 10367 10362 10356 10349 10340
10649 10646 10644 10641 10640 10638 10636 10635 10634 10633 10632 10632 10631 10630 10630 10629 10629 10628 10627 10627 10626 10625 10624 10624 10623 10621 10620 10619 10617 10615 10612 10609 10607 10604 10601 10598 10594 10591 10588 10584 10581 10577 10573 10568 10564 10559 10555 10552 10550 10546 10540 10534 10528 10524 10521 10515 10508 10503 10499 10494 10487 10482 10479 10476 10472 10470 10468 10461 10452 10446 10442 10435 10427 10421 10418 10417 10413 10402 10394 10389 10380 10371 10363 10355 10348 10342 10334 10325
10646 10643 10641 10639 10637 10636 10634 10633 10632 10631 10630 10630 10629 10628 10628 10627 10627 10626 10625 10624 10623 10623 10622 10620 10619 10618 10616 10614 10612 10610 10608 10605 10602 10599 10596 10592 10588 10585 10582 10578 10574 10570 10566 10562 10557 10552 10547 10543 10541 10540 10536 10529 10523 10518 10516 10511 10503 10499 10496 10491 10485 10478 10473 10470 10465 10462 10460 10455 10446 10439 10435 10426 10414 10409 10406 10402 10397 10388 10380 10374 10365 10356 10348 10340 10333 10326 10317 10309
10643 10640 10638 10637 10635 10634 10633 10631 10630 10629 10628 10627 10627 10626 10626 10625 10624 10623 10622 10622 10620 10619 10618 10616 10615 10613 10611 10610 10608 10605 10603 10600 10597 10593 10590 10586 10582 10579 10575 10571 10567 10563 10559 10555 10551 10546 10541 10535 10532 10531 10528 10523 10519 10514 10512 10508 10501 10495 10491 10487 10482 10475 10469 10464 10459 10453 10450 10447 10439 10430 10427 10422 10408 10398 10396 10391 10382 10374 10368 10360 10351 10342 10333 10327 10321 10313 10303 10294
10640 10637 10636 10634 10633 10631 10630 10629 10628 10627 10626 10625 10624 10624 10623 10622 10621 10621 10619 10618 10617 10616 10614 10613 10611 10610 10607 10605 10603 10600 10597 10594 10591 10588 10584 10581 10577 10573 10570 10565 10561 10557 10553 10549 10545 10541 10536 10529 10524 10522 10518 10515 10513 10509 10506 10503 10497 10490 10485 10480 10476 10470 10463 10457 10451 10446 10441 10438 10432 10420 10414 10413 10403 10392 10388 10380 10371 10364 10357 10349 10342 10332 10323 10317 10310 10301 10291 10282
10637 10635 10633 10632 10630 10629 10628 10626 10625 10624 10624 10623 10622 10621 10620 10619 10618 10617 10616 10615 10614 10612 10611 10609 10607 10605 10603 10600 10597 10594 10591 10588 10585 10582 10579 10576 10572 10568 10564 10560 10555 10551 10547 10543 10539 10535 10530 10524 10519 10515 10511 10508 10507 10503 10499 10496 10491 10485 10479 10474 10469 10463 10456 10449 10443 10437 10431 10427 10423 10412 10401 10397 10392 10385 10378 10369 10361 10355 10347 10339 10331 10322 10313 10306 10297 10287 10278 10269
10634 10632 10631 10629 10628 10627 10625 10624 10623 10622 10621 10621 10620 10618 10617 10617 10616 10615 10613 10612 10610 10609 10607 10605 10603 10600 10597 10595 10592 10589 10586 10582 10579 10576 10573 10570 10566 10562 10558 10553 10549 10545 10540 10537 10533 10529 10525 10520 10516 10512 10506 10502 10500 10497 10493 10489 10483 10478 10472 10466 10462 10457 10449 10442 10434 10427 10422 10416 10410 10403 10393 10384 10378 10374 10368 10359 10350 10343 10335 10326 10318 10308 10300 10292 10281 10270 10262 10253
10631 10630 10628 10627 10626 10624 10623 10622 10621 10620 10619 10618 10617 10616 10615 10614 10613 10611 10610 10608 10606 10604 10602 10600 10597 10595 10592 10590 10587 10584 10581 10578 10574 10570 10567 10563 10560 10556 10552 10547 10543 10538 10534 10531 10527 10524 10521 10516 10513 10509 10502 10496 10493 10489 10486 10482 10475 10468 10464 10458 10453 10448 10442 10433 10425 10418 10413 10407 10399 10392 10385 10376 10367 10361 10354 10346 10338 10328 10318 10309 10300 10291 10284 10276 10266 10255 10244 10235
10629 10627 10626 10625 10623 10622 10621 10620 10619 10618 10617 10616 10615 10614 10612 10611 10609 10608 10606 10604 10602 10600 10597 10595 10592 10590 10588 10585 10582 10579 10576 10573 10569 10565 10562 10558 10554 10550 10546 10541 10537 10533 10529 10526 10523 10520 10517 10513 10509 10506 10500 10493 10488 10484 10479 10476 10469 10460 10454 10450 10444 10439 10434 10426 10419 10411 10405 10399 10390 10381 10374 10367 10359 10350 10340 10331 10322 10313 10303 10293 10285 10277 10267 10257 10249 10240 10228 10218
10627 10625 10624 10623 10621 10620 10619 10618 10616 10615 10614 10613 10612 10611 10609 10607 10605 10604 10602 10600 10598 10595 10593 10591 10588 10585 10583 10580 10577 10574 10570 10567 10564 10560 10556 10553 10548 10544 10540 10536 10533 10529 10526 10523 10520 10516 10513 10509 10504 10501 10497 10490 10485 10481 10474 10470 10465 10455 10447 10443 10438 10432 10426 10419 10412 10404 10396 10391 10384 10373 10363 10357 10350 10341 10330 10320 10309 10299 10289 10279 10269 10263 10253 10241 10232 10224 10215 10206
10625 10624 10622 10621 10619 10618 10617 10615 10614 10613 10612 10610 10609 10607 10605 10604 10602 10600 10598 10596 10594 10591 10589 10586 10584 10581 10578 10575 10571 10568 10565 10561 10558 10554 10550 10547 10544 10540 10536 10533 10529 10526 10523 10519 10516 10512 10508 10505 10500 10496 10492 10485 10479 10475 10469 10463 10459 10451 10441 10435 10430 10424 10418 10411 10404 10395 10386 10379 10373 10364 10354 10346 10337 10328 10320 10311 10299 10285 10273 10262 10253 10248 10242 10232 10220 10209 10199 10191